| time (UTC) | temp F | wind direction | speed MPH | gust MPH | rain 1hr in | rain 24hr in | rain mn in | humidity % | barometer mb |
| 20260905050336 | 84 | 207 | 3.0 | 3.0 | 0.00 | 0.00 | 0.00 | 65 | 1014.7 |
| 20260905045831 | 84 | 186 | 4.0 | 5.0 | 0.00 | 0.00 | 0.00 | 64 | 1014.9 |
| 20260905045326 | 84 | 194 | 3.0 | 3.0 | 0.00 | 0.00 | 0.00 | 64 | 1014.5 |
| 20260905044822 | 84 | 177 | 2.0 | 3.0 | 0.00 | 0.00 | 0.00 | 63 | 1014.7 |
| 20260905044317 | 84 | 201 | 5.0 | 6.0 | 0.00 | 0.00 | 0.00 | 63 | 1014.9 |
| 20260905043815 | 85 | 165 | 4.0 | 5.0 | 0.00 | 0.00 | 0.00 | 63 | 1014.7 |
| 20260905043310 | 85 | 178 | 4.0 | 5.0 | 0.00 | 0.00 | 0.00 | 63 | 1014.9 |
| 20260905042810 | 85 | 183 | 3.0 | 3.0 | 0.00 | 0.00 | 0.00 | 62 | 1014.9 |
| 20260905042307 | 85 | 177 | 2.0 | 2.0 | 0.00 | 0.00 | 0.00 | 62 | 1014.6 |
| 20260905041800 | 85 | 195 | 4.0 | 6.0 | 0.00 | 0.00 | 0.00 | 62 | 1014.8 |
| 20260905041256 | 85 | 172 | 3.0 | 5.0 | 0.00 | 0.00 | 0.00 | 62 | 1014.6 |
| 20260905040751 | 85 | 173 | 2.0 | 2.0 | 0.00 | 0.00 | 0.00 | 62 | 1014.5 |
| 20260905040249 | 85 | 159 | 3.0 | 3.0 | 0.00 | 0.00 | 0.00 | 62 | 1014.7 |
| 20260905035744 | 85 | 188 | 2.0 | 2.0 | 0.00 | 0.00 | 0.00 | 62 | 1014.7 |
| 20260905035240 | 86 | 171 | 3.0 | 3.0 | 0.00 | 0.00 | 0.00 | 61 | 1015.0 |
| 20260905034736 | 86 | 161 | 2.0 | 2.0 | 0.00 | 0.00 | 0.00 | 61 | 1014.8 |
| 20260905034231 | 86 | 185 | 2.0 | 2.0 | 0.00 | 0.00 | 0.00 | 61 | 1014.6 |
| 20260905033730 | 86 | 172 | 4.0 | 5.0 | 0.00 | 0.00 | 0.00 | 61 | 1014.8 |
| 20260905033225 | 86 | 173 | 2.0 | 2.0 | 0.00 | 0.00 | 0.00 | 60 | 1014.8 |
| 20260905032724 | 86 | 175 | 3.0 | 5.0 | 0.00 | 0.00 | 0.00 | 60 | 1015.0 |
| 20260905032220 | 86 | 182 | 3.0 | 5.0 | 0.00 | 0.00 | 0.00 | 60 | 1014.9 |
| 20260905031715 | 86 | 137 | 3.0 | 3.0 | 0.00 | 0.00 | 0.00 | 60 | 1014.8 |
| 20260905031211 | 86 | 152 | 3.0 | 3.0 | 0.00 | 0.00 | 0.00 | 60 | 1014.6 |
| 20260905030706 | 86 | 148 | 2.0 | 2.0 | 0.00 | 0.00 | 0.00 | 59 | 1014.6 |
| 20260905030201 | 86 | 160 | 2.0 | 2.0 | 0.00 | 0.00 | 0.00 | 59 | 1014.7 |
| 20260905025656 | 87 | 175 | 3.0 | 3.0 | 0.00 | 0.00 | 0.00 | 59 | 1014.6 |
| 20260905025151 | 87 | 162 | 2.0 | 3.0 | 0.00 | 0.00 | 0.00 | 59 | 1014.5 |
| 20260905024647 | 87 | 176 | 3.0 | 5.0 | 0.00 | 0.00 | 0.00 | 58 | 1014.5 |
| 20260905024143 | 87 | 172 | 3.0 | 3.0 | 0.00 | 0.00 | 0.00 | 58 | 1014.3 |
| 20260905023638 | 87 | 148 | 4.0 | 5.0 | 0.00 | 0.00 | 0.00 | 58 | 1014.5 |
| 20260905023137 | 87 | 143 | 2.0 | 2.0 | 0.00 | 0.00 | 0.00 | 58 | 1014.4 |
| 20260905022636 | 87 | 143 | 1.0 | 2.0 | 0.00 | 0.00 | 0.00 | 58 | 1014.4 |
| 20260905022131 | 87 | 141 | 2.0 | 2.0 | 0.00 | 0.00 | 0.00 | 58 | 1014.3 |
| 20260905021626 | 87 | 146 | 2.0 | 2.0 | 0.00 | 0.00 | 0.00 | 57 | 1014.0 |
| 20260905021122 | 87 | 149 | 2.0 | 2.0 | 0.00 | 0.00 | 0.00 | 57 | 1014.1 |
| 20260905020621 | 87 | 166 | 3.0 | 3.0 | 0.00 | 0.00 | 0.00 | 57 | 1013.9 |
| 20260905020117 | 87 | 160 | 2.0 | 2.0 | 0.00 | 0.00 | 0.00 | 56 | 1013.8 |
| 20260905015615 | 87 | 153 | 3.0 | 3.0 | 0.00 | 0.00 | 0.00 | 56 | 1014.0 |
| 20260905015109 | 87 | 139 | 2.0 | 2.0 | 0.00 | 0.00 | 0.00 | 56 | 1013.8 |
| 20260905014603 | 88 | 148 | 2.0 | 2.0 | 0.00 | 0.00 | 0.00 | 55 | 1013.9 |
| 20260905014059 | 88 | 147 | 1.0 | 1.0 | 0.00 | 0.00 | 0.00 | 55 | 1013.9 |
| 20260905013555 | 88 | 147 | 1.0 | 1.0 | 0.00 | 0.00 | 0.00 | 54 | 1013.9 |
| 20260905013052 | 89 | 147 | 1.0 | 2.0 | 0.00 | 0.00 | 0.00 | 54 | 1013.6 |
| 20260905012550 | 89 | 147 | 1.0 | 1.0 | 0.00 | 0.00 | 0.00 | 53 | 1013.6 |
| 20260905012048 | 89 | 147 | 2.0 | 2.0 | 0.00 | 0.00 | 0.00 | 53 | 1013.6 |
| 20260905011543 | 89 | 147 | 1.0 | 2.0 | 0.00 | 0.00 | 0.00 | 53 | 1013.7 |
| 20260905011038 | 89 | 154 | 2.0 | 2.0 | 0.00 | 0.00 | 0.00 | 53 | 1013.6 |
| 20260905010533 | 90 | 153 | 2.0 | 2.0 | 0.00 | 0.00 | 0.00 | 52 | 1013.7 |
| 20260905010030 | 90 | 141 | 3.0 | 3.0 | 0.00 | 0.00 | 0.00 | 52 | 1013.5 |
| 20260905005525 | 91 | 162 | 4.0 | 5.0 | 0.00 | 0.00 | 0.00 | 51 | 1013.6 |
| 20260905005021 | 91 | 145 | 3.0 | 3.0 | 0.00 | 0.00 | 0.00 | 51 | 1013.4 |
| 20260905004520 | 91 | 151 | 3.0 | 5.0 | 0.00 | 0.00 | 0.00 | 50 | 1013.3 |
| 20260905004015 | 92 | 133 | 3.0 | 3.0 | 0.00 | 0.00 | 0.00 | 50 | 1013.6 |
| 20260905003512 | 92 | 144 | 5.0 | 6.0 | 0.00 | 0.00 | 0.00 | 49 | 1013.3 |
| 20260905003007 | 93 | 157 | 5.0 | 6.0 | 0.00 | 0.00 | 0.00 | 48 | 1013.3 |
| 20260905002502 | 93 | 201 | 5.0 | 8.0 | 0.00 | 0.00 | 0.00 | 48 | 1013.3 |
| 20260905001956 | 93 | 132 | 4.0 | 5.0 | 0.00 | 0.00 | 0.00 | 47 | 1013.3 |
| 20260905001450 | 94 | 171 | 7.0 | 8.0 | 0.00 | 0.00 | 0.00 | 47 | 1013.2 |
| 20260905000945 | 94 | 189 | 5.0 | 6.0 | 0.00 | 0.00 | 0.00 | 47 | 1013.2 |
| 20260905000441 | 94 | 163 | 6.0 | 7.0 | 0.00 | 0.00 | 0.00 | 46 | 1013.4 |
| 20260904235936 | 94 | 174 | 6.0 | 7.0 | 0.00 | 0.00 | 0.00 | 45 | 1013.1 |
| 20260904235432 | 95 | 185 | 6.0 | 8.0 | 0.00 | 0.00 | 0.00 | 45 | 1013.3 |
| 20260904234931 | 95 | 198 | 7.0 | 8.0 | 0.00 | 0.00 | 0.00 | 46 | 1013.2 |
| 20260904234426 | 95 | 139 | 6.0 | 7.0 | 0.00 | 0.00 | 0.00 | 46 | 1013.0 |
| 20260904233922 | 95 | 157 | 4.0 | 6.0 | 0.00 | 0.00 | 0.00 | 45 | 1013.1 |
| 20260904233417 | 95 | 190 | 5.0 | 7.0 | 0.00 | 0.00 | 0.00 | 45 | 1013.2 |
| 20260904232913 | 95 | 152 | 5.0 | 6.0 | 0.00 | 0.00 | 0.00 | 44 | 1013.0 |
| 20260904232410 | 95 | 181 | 5.0 | 6.0 | 0.00 | 0.00 | 0.00 | 44 | 1013.1 |
| 20260904231905 | 96 | 197 | 7.0 | 9.0 | 0.00 | 0.00 | 0.00 | 44 | 1013.0 |
| 20260904231400 | 96 | 189 | 6.0 | 7.0 | 0.00 | 0.00 | 0.00 | 44 | 1013.0 |
| 20260904230855 | 95 | 186 | 6.0 | 8.0 | 0.00 | 0.00 | 0.00 | 43 | 1013.0 |
| 20260904230354 | 96 | 175 | 5.0 | 7.0 | 0.00 | 0.00 | 0.00 | 43 | 1013.2 |
| 20260904225849 | 96 | 176 | 6.0 | 7.0 | 0.00 | 0.00 | 0.00 | 43 | 1013.0 |
| 20260904225347 | 95 | 138 | 7.0 | 10.0 | 0.00 | 0.00 | 0.00 | 43 | 1013.3 |
| 20260904224842 | 95 | 122 | 5.0 | 5.0 | 0.00 | 0.00 | 0.00 | 45 | 1013.4 |
| 20260904224337 | 96 | 127 | 7.0 | 8.0 | 0.00 | 0.00 | 0.00 | 44 | 1013.3 |
| 20260904223836 | 96 | 156 | 6.0 | 8.0 | 0.00 | 0.00 | 0.00 | 44 | 1013.3 |
| 20260904223331 | 96 | 159 | 5.0 | 6.0 | 0.00 | 0.00 | 0.00 | 44 | 1013.3 |
| 20260904222827 | 96 | 186 | 5.0 | 6.0 | 0.00 | 0.00 | 0.00 | 44 | 1013.0 |
| 20260904222328 | 97 | 149 | 8.0 | 10.0 | 0.00 | 0.00 | 0.00 | 42 | 1013.3 |
| 20260904221827 | 97 | 124 | 5.0 | 7.0 | 0.00 | 0.00 | 0.00 | 40 | 1013.1 |
| 20260904221327 | 97 | 130 | 4.0 | 5.0 | 0.00 | 0.00 | 0.00 | 41 | 1013.1 |
| 20260904220823 | 97 | 176 | 7.0 | 9.0 | 0.00 | 0.00 | 0.00 | 43 | 1013.4 |
| 20260904220322 | 97 | 218 | 7.0 | 9.0 | 0.00 | 0.00 | 0.00 | 42 | 1013.1 |
| 20260904215817 | 98 | 201 | 7.0 | 9.0 | 0.00 | 0.00 | 0.00 | 42 | 1013.4 |
| 20260904215313 | 98 | 97 | 3.0 | 5.0 | 0.00 | 0.00 | 0.00 | 43 | 1013.4 |
| 20260904214809 | 97 | 156 | 3.0 | 3.0 | 0.00 | 0.00 | 0.00 | 42 | 1013.6 |
| 20260904214304 | 97 | 130 | 4.0 | 7.0 | 0.00 | 0.00 | 0.00 | 43 | 1013.5 |
| 20260904213802 | 97 | 136 | 5.0 | 6.0 | 0.00 | 0.00 | 0.00 | 42 | 1013.6 |
| 20260904213258 | 96 | 186 | 3.0 | 3.0 | 0.00 | 0.00 | 0.00 | 44 | 1013.6 |
| 20260904212754 | 97 | 191 | 9.0 | 11.0 | 0.00 | 0.00 | 0.00 | 42 | 1013.7 |
| 20260904212254 | 97 | 215 | 9.0 | 9.0 | 0.00 | 0.00 | 0.00 | 41 | 1013.9 |
| 20260904211749 | 96 | 179 | 5.0 | 7.0 | 0.00 | 0.00 | 0.00 | 43 | 1013.7 |
| 20260904211243 | 96 | 162 | 6.0 | 7.0 | 0.00 | 0.00 | 0.00 | 42 | 1013.7 |
| 20260904210738 | 96 | 173 | 6.0 | 7.0 | 0.00 | 0.00 | 0.00 | 43 | 1014.0 |
| 20260904210233 | 96 | 182 | 5.0 | 6.0 | 0.00 | 0.00 | 0.00 | 44 | 1013.7 |
| 20260904205729 | 96 | 177 | 9.0 | 10.0 | 0.00 | 0.00 | 0.00 | 43 | 1013.9 |
| 20260904205225 | 95 | 160 | 7.0 | 9.0 | 0.00 | 0.00 | 0.00 | 45 | 1014.2 |
| 20260904204722 | 97 | 161 | 9.0 | 11.0 | 0.00 | 0.00 | 0.00 | 43 | 1014.0 |
| 20260904204217 | 97 | 188 | 9.0 | 10.0 | 0.00 | 0.00 | 0.00 | 43 | 1014.1 |
| 20260904203713 | 98 | 126 | 7.0 | 9.0 | 0.00 | 0.00 | 0.00 | 43 | 1014.0 |
| 20260904203210 | 97 | 145 | 7.0 | 8.0 | 0.00 | 0.00 | 0.00 | 44 | 1014.0 |
| 20260904202705 | 96 | 149 | 8.0 | 9.0 | 0.00 | 0.00 | 0.00 | 43 | 1014.3 |
| 20260904202201 | 97 | 214 | 11.0 | 13.0 | 0.00 | 0.00 | 0.00 | 43 | 1014.4 |
| 20260904201701 | 97 | 132 | 5.0 | 6.0 | 0.00 | 0.00 | 0.00 | 43 | 1014.3 |
| 20260904201150 | 97 | 174 | 5.0 | 6.0 | 0.00 | 0.00 | 0.00 | 43 | 1014.4 |
| 20260904200650 | 97 | 162 | 11.0 | 13.0 | 0.00 | 0.00 | 0.00 | 44 | 1014.5 |
| 20260904200145 | 96 | 118 | 7.0 | 9.0 | 0.00 | 0.00 | 0.00 | 45 | 1014.4 |
| 20260904195644 | 96 | 169 | 10.0 | 13.0 | 0.00 | 0.00 | 0.00 | 45 | 1014.5 |
| 20260904195144 | 95 | 150 | 7.0 | 8.0 | 0.00 | 0.00 | 0.00 | 47 | 1014.8 |
| 20260904194638 | 96 | 124 | 9.0 | 11.0 | 0.00 | 0.00 | 0.00 | 45 | 1014.7 |
| 20260904194132 | 96 | 128 | 4.0 | 6.0 | 0.00 | 0.00 | 0.00 | 46 | 1014.6 |
| 20260904193627 | 95 | 128 | 7.0 | 8.0 | 0.00 | 0.00 | 0.00 | 46 | 1014.7 |
| 20260904193124 | 96 | 152 | 5.0 | 7.0 | 0.00 | 0.00 | 0.00 | 45 | 1015.0 |
| 20260904192623 | 96 | 199 | 7.0 | 9.0 | 0.00 | 0.00 | 0.00 | 44 | 1014.8 |
| 20260904192119 | 97 | 196 | 8.0 | 14.0 | 0.00 | 0.00 | 0.00 | 45 | 1014.9 |
| 20260904191615 | 97 | 203 | 10.0 | 11.0 | 0.00 | 0.00 | 0.00 | 43 | 1014.7 |
| 20260904191112 | 96 | 192 | 9.0 | 13.0 | 0.00 | 0.00 | 0.00 | 45 | 1014.8 |
| 20260904190607 | 96 | 123 | 9.0 | 10.0 | 0.00 | 0.00 | 0.00 | 45 | 1015.1 |
| 20260904185600 | 96 | 163 | 6.0 | 8.0 | 0.00 | 0.00 | 0.00 | 47 | 1015.1 |
| 20260904185054 | 97 | 166 | 10.0 | 14.0 | 0.00 | 0.00 | 0.00 | 44 | 1015.1 |
| 20260904184548 | 96 | 186 | 7.0 | 9.0 | 0.00 | 0.00 | 0.00 | 45 | 1015.2 |
| 20260904184043 | 96 | 95 | 4.0 | 5.0 | 0.00 | 0.00 | 0.00 | 44 | 1015.5 |
| 20260904183538 | 96 | 158 | 5.0 | 7.0 | 0.00 | 0.00 | 0.00 | 45 | 1015.4 |
| 20260904183033 | 95 | 180 | 3.0 | 5.0 | 0.00 | 0.00 | 0.00 | 44 | 1015.4 |
| 20260904182529 | 95 | 143 | 3.0 | 3.0 | 0.00 | 0.00 | 0.00 | 43 | 1015.9 |
| 20260904182029 | 95 | 114 | 4.0 | 5.0 | 0.00 | 0.00 | 0.00 | 42 | 1015.5 |
| 20260904181524 | 95 | 206 | 4.0 | 5.0 | 0.00 | 0.00 | 0.00 | 42 | 1015.7 |
| 20260904181025 | 96 | 125 | 8.0 | 9.0 | 0.00 | 0.00 | 0.00 | 43 | 1015.7 |
| 20260904180519 | 95 | 144 | 3.0 | 5.0 | 0.00 | 0.00 | 0.00 | 42 | 1015.8 |
| 20260904180014 | 96 | 119 | 7.0 | 8.0 | 0.00 | 0.00 | 0.00 | 42 | 1016.0 |
| 20260904175508 | 96 | 123 | 5.0 | 6.0 | 0.00 | 0.00 | 0.00 | 41 | 1015.9 |
| 20260904175001 | 95 | 145 | 5.0 | 6.0 | 0.00 | 0.00 | 0.00 | 43 | 1015.7 |
| 20260904174456 | 95 | 180 | 7.0 | 8.0 | 0.00 | 0.00 | 0.00 | 44 | 1016.1 |
| 20260904173954 | 95 | 209 | 3.0 | 3.0 | 0.00 | 0.00 | 0.00 | 43 | 1016.1 |
| 20260904173453 | 95 | 200 | 8.0 | 8.0 | 0.00 | 0.00 | 0.00 | 44 | 1016.0 |
| 20260904172949 | 94 | 173 | 7.0 | 9.0 | 0.00 | 0.00 | 0.00 | 45 | 1016.2 |
| 20260904172443 | 95 | 132 | 3.0 | 3.0 | 0.00 | 0.00 | 0.00 | 50 | 1016.0 |
| 20260904171938 | 94 | 146 | 7.0 | 8.0 | 0.00 | 0.00 | 0.00 | 50 | 1016.3 |
| 20260904171434 | 94 | 199 | 3.0 | 3.0 | 0.00 | 0.00 | 0.00 | 49 | 1016.6 |
| 20260904170930 | 94 | 205 | 9.0 | 9.0 | 0.00 | 0.00 | 0.00 | 49 | 1016.8 |
| 20260904170425 | 93 | 197 | 5.0 | 6.0 | 0.00 | 0.00 | 0.00 | 45 | 1016.6 |
| 20260904165920 | 93 | 208 | 7.0 | 8.0 | 0.00 | 0.00 | 0.00 | 51 | 1016.6 |
| 20260904165419 | 93 | 173 | 5.0 | 6.0 | 0.00 | 0.00 | 0.00 | 51 | 1016.7 |
| 20260904164918 | 93 | 153 | 9.0 | 10.0 | 0.00 | 0.00 | 0.00 | 49 | 1016.8 |
| 20260904164419 | 92 | 146 | 3.0 | 3.0 | 0.00 | 0.00 | 0.00 | 54 | 1016.8 |
| 20260904163915 | 92 | 231 | 7.0 | 8.0 | 0.00 | 0.00 | 0.00 | 48 | 1016.9 |
| 20260904163414 | 91 | 168 | 5.0 | 6.0 | 0.00 | 0.00 | 0.00 | 55 | 1016.7 |
| 20260904162914 | 91 | 206 | 5.0 | 8.0 | 0.00 | 0.00 | 0.00 | 57 | 1016.8 |
| 20260904162409 | 91 | 196 | 3.0 | 3.0 | 0.00 | 0.00 | 0.00 | 56 | 1016.9 |
| 20260904161904 | 90 | 202 | 3.0 | 3.0 | 0.00 | 0.00 | 0.00 | 58 | 1016.8 |
| 20260904161400 | 90 | 148 | 6.0 | 7.0 | 0.00 | 0.00 | 0.00 | 58 | 1017.0 |
| 20260904160855 | 90 | 220 | 4.0 | 5.0 | 0.00 | 0.00 | 0.00 | 61 | 1016.9 |
| 20260904160350 | 90 | 182 | 3.0 | 3.0 | 0.00 | 0.00 | 0.00 | 60 | 1016.9 |
| 20260904155846 | 89 | 200 | 5.0 | 7.0 | 0.00 | 0.00 | 0.00 | 61 | 1016.8 |
| 20260904155340 | 89 | 212 | 9.0 | 10.0 | 0.00 | 0.00 | 0.00 | 61 | 1016.8 |
| 20260904154838 | 89 | 196 | 7.0 | 9.0 | 0.00 | 0.00 | 0.00 | 60 | 1016.8 |
| 20260904154333 | 88 | 188 | 6.0 | 7.0 | 0.00 | 0.00 | 0.00 | 62 | 1016.7 |
| 20260904153829 | 88 | 199 | 5.0 | 7.0 | 0.00 | 0.00 | 0.00 | 66 | 1016.7 |
| 20260904153324 | 88 | 207 | 10.0 | 10.0 | 0.00 | 0.00 | 0.00 | 64 | 1016.2 |
| 20260904152821 | 87 | 181 | 5.0 | 6.0 | 0.00 | 0.00 | 0.00 | 67 | 1016.7 |
| 20260904152315 | 87 | 197 | 8.0 | 9.0 | 0.00 | 0.00 | 0.00 | 68 | 1016.7 |
| 20260904151810 | 87 | 153 | 3.0 | 6.0 | 0.00 | 0.00 | 0.00 | 71 | 1016.8 |
| 20260904151309 | 86 | 224 | 5.0 | 6.0 | 0.00 | 0.00 | 0.00 | 71 | 1016.6 |
| 20260904150805 | 86 | 197 | 6.0 | 7.0 | 0.00 | 0.00 | 0.00 | 73 | 1016.8 |
| 20260904150300 | 85 | 219 | 5.0 | 7.0 | 0.00 | 0.00 | 0.00 | 74 | 1016.6 |
| 20260904145758 | 85 | 197 | 8.0 | 9.0 | 0.00 | 0.00 | 0.00 | 76 | 1016.7 |
| 20260904145254 | 85 | 200 | 11.0 | 11.0 | 0.00 | 0.00 | 0.00 | 76 | 1016.8 |
| 20260904144749 | 84 | 185 | 5.0 | 7.0 | 0.00 | 0.00 | 0.00 | 76 | 1016.7 |
| 20260904144245 | 85 | 168 | 7.0 | 9.0 | 0.00 | 0.00 | 0.00 | 76 | 1016.8 |
| 20260904143740 | 84 | 215 | 9.0 | 11.0 | 0.00 | 0.00 | 0.00 | 78 | 1016.9 |
| 20260904143237 | 84 | 205 | 8.0 | 9.0 | 0.00 | 0.00 | 0.00 | 79 | 1016.9 |
| 20260904142733 | 84 | 156 | 5.0 | 6.0 | 0.00 | 0.00 | 0.00 | 79 | 1016.9 |
| 20260904142229 | 84 | 195 | 7.0 | 8.0 | 0.00 | 0.00 | 0.00 | 80 | 1016.8 |
| 20260904141728 | 83 | 159 | 6.0 | 7.0 | 0.00 | 0.00 | 0.00 | 81 | 1016.6 |
| 20260904141224 | 83 | 180 | 6.0 | 6.0 | 0.00 | 0.00 | 0.00 | 82 | 1016.7 |
| 20260904140719 | 82 | 177 | 6.0 | 8.0 | 0.00 | 0.00 | 0.00 | 83 | 1016.5 |
| 20260904140215 | 82 | 212 | 7.0 | 9.0 | 0.00 | 0.00 | 0.00 | 83 | 1016.7 |
| 20260904135713 | 81 | 144 | 6.0 | 8.0 | 0.00 | 0.00 | 0.00 | 84 | 1016.6 |
| 20260904135209 | 81 | 169 | 8.0 | 9.0 | 0.00 | 0.00 | 0.00 | 84 | 1016.8 |
| 20260904134705 | 81 | 155 | 8.0 | 8.0 | 0.00 | 0.00 | 0.00 | 85 | 1016.6 |
| 20260904134204 | 80 | 172 | 5.0 | 6.0 | 0.00 | 0.00 | 0.00 | 85 | 1016.3 |
| 20260904133659 | 80 | 149 | 4.0 | 5.0 | 0.00 | 0.00 | 0.00 | 86 | 1016.6 |
| 20260904133156 | 80 | 148 | 8.0 | 8.0 | 0.00 | 0.00 | 0.00 | 86 | 1016.3 |
| 20260904132654 | 79 | 152 | 5.0 | 6.0 | 0.00 | 0.00 | 0.00 | 87 | 1016.6 |
| 20260904132150 | 79 | 129 | 5.0 | 6.0 | 0.00 | 0.00 | 0.00 | 88 | 1016.2 |
| 20260904131649 | 78 | 161 | 4.0 | 5.0 | 0.00 | 0.00 | 0.00 | 88 | 1016.5 |
| 20260904131144 | 78 | 101 | 2.0 | 2.0 | 0.00 | 0.00 | 0.00 | 89 | 1016.3 |
| 20260904130639 | 77 | 110 | 3.0 | 3.0 | 0.00 | 0.00 | 0.00 | 89 | 1016.3 |
| 20260904130138 | 77 | 113 | 3.0 | 3.0 | 0.00 | 0.00 | 0.00 | 90 | 1016.2 |
| 20260904125635 | 77 | 101 | 1.0 | 2.0 | 0.00 | 0.00 | 0.00 | 90 | 1016.2 |
| 20260904125130 | 77 | 95 | 1.0 | 1.0 | 0.00 | 0.00 | 0.00 | 91 | 1016.1 |
| 20260904124625 | 77 | 112 | 3.0 | 3.0 | 0.00 | 0.00 | 0.00 | 91 | 1016.2 |
| 20260904124120 | 77 | 102 | 1.0 | 1.0 | 0.00 | 0.00 | 0.00 | 92 | 1016.0 |
| 20260904123615 | 76 | 130 | 2.0 | 2.0 | 0.00 | 0.00 | 0.00 | 93 | 1015.9 |
| 20260904123111 | 76 | 131 | 3.0 | 3.0 | 0.00 | 0.00 | 0.00 | 93 | 1016.0 |
| 20260904122606 | 76 | 126 | 3.0 | 3.0 | 0.00 | 0.00 | 0.00 | 93 | 1016.3 |
| 20260904122100 | 76 | 110 | 3.0 | 3.0 | 0.00 | 0.00 | 0.00 | 93 | 1016.0 |
| 20260904121556 | 76 | 144 | 3.0 | 3.0 | 0.00 | 0.00 | 0.00 | 93 | 1016.0 |
| 20260904121051 | 76 | 154 | 4.0 | 5.0 | 0.00 | 0.00 | 0.00 | 93 | 1016.0 |
| 20260904120548 | 76 | 156 | 2.0 | 2.0 | 0.00 | 0.00 | 0.00 | 92 | 1016.0 |
| 20260904120043 | 76 | 147 | 3.0 | 5.0 | 0.00 | 0.00 | 0.00 | 92 | 1015.9 |
| 20260904115538 | 76 | 149 | 3.0 | 3.0 | 0.00 | 0.00 | 0.00 | 92 | 1015.9 |
| 20260904115033 | 76 | 134 | 2.0 | 2.0 | 0.00 | 0.00 | 0.00 | 92 | 1016.1 |
| 20260904114528 | 76 | 123 | 2.0 | 2.0 | 0.00 | 0.00 | 0.00 | 92 | 1015.8 |
| 20260904114028 | 76 | 153 | 3.0 | 3.0 | 0.00 | 0.00 | 0.00 | 92 | 1015.8 |
| 20260904113527 | 76 | 164 | 3.0 | 3.0 | 0.00 | 0.00 | 0.00 | 92 | 1015.6 |
| 20260904113027 | 76 | 138 | 2.0 | 2.0 | 0.00 | 0.00 | 0.00 | 91 | 1015.6 |
| 20260904112522 | 76 | 182 | 4.0 | 5.0 | 0.00 | 0.00 | 0.00 | 91 | 1015.6 |
| 20260904112018 | 76 | 158 | 5.0 | 5.0 | 0.00 | 0.00 | 0.00 | 91 | 1015.7 |
| 20260904111514 | 76 | 155 | 4.0 | 5.0 | 0.00 | 0.00 | 0.00 | 91 | 1015.5 |
| 20260904111009 | 76 | 124 | 4.0 | 6.0 | 0.00 | 0.00 | 0.00 | 91 | 1015.8 |
| 20260904110508 | 76 | 138 | 4.0 | 6.0 | 0.00 | 0.00 | 0.00 | 91 | 1015.6 |
| 20260904110003 | 76 | 159 | 4.0 | 5.0 | 0.00 | 0.00 | 0.00 | 91 | 1015.4 |
| 20260904105458 | 76 | 141 | 4.0 | 5.0 | 0.00 | 0.00 | 0.00 | 90 | 1015.6 |
| 20260904104954 | 76 | 137 | 3.0 | 3.0 | 0.00 | 0.00 | 0.00 | 90 | 1015.4 |
| 20260904104449 | 76 | 140 | 4.0 | 5.0 | 0.00 | 0.00 | 0.00 | 90 | 1015.6 |
| 20260904103944 | 76 | 134 | 4.0 | 5.0 | 0.00 | 0.00 | 0.00 | 90 | 1015.4 |
| 20260904103440 | 76 | 145 | 4.0 | 5.0 | 0.00 | 0.00 | 0.00 | 90 | 1015.3 |
| 20260904102936 | 76 | 158 | 3.0 | 3.0 | 0.00 | 0.00 | 0.00 | 89 | 1015.5 |
| 20260904102432 | 76 | 151 | 6.0 | 8.0 | 0.00 | 0.00 | 0.00 | 89 | 1015.2 |
| 20260904101927 | 76 | 156 | 3.0 | 5.0 | 0.00 | 0.00 | 0.00 | 89 | 1015.4 |
| 20260904101424 | 76 | 139 | 3.0 | 3.0 | 0.00 | 0.00 | 0.00 | 89 | 1015.2 |
| 20260904100919 | 76 | 137 | 2.0 | 2.0 | 0.00 | 0.00 | 0.00 | 89 | 1015.2 |
| 20260904100415 | 76 | 166 | 3.0 | 3.0 | 0.00 | 0.00 | 0.00 | 88 | 1015.5 |
| 20260904095909 | 76 | 156 | 3.0 | 3.0 | 0.00 | 0.00 | 0.00 | 89 | 1015.3 |
| 20260904095404 | 76 | 151 | 2.0 | 2.0 | 0.00 | 0.00 | 0.00 | 88 | 1015.1 |
| 20260904094859 | 76 | 202 | 3.0 | 5.0 | 0.00 | 0.00 | 0.00 | 88 | 1015.4 |
| 20260904094354 | 76 | 147 | 4.0 | 5.0 | 0.00 | 0.00 | 0.00 | 88 | 1015.4 |
| 20260904093850 | 76 | 152 | 3.0 | 3.0 | 0.00 | 0.00 | 0.00 | 88 | 1015.0 |
| 20260904093349 | 76 | 144 | 2.0 | 2.0 | 0.00 | 0.00 | 0.00 | 88 | 1015.1 |
| 20260904092845 | 75 | 154 | 2.0 | 2.0 | 0.00 | 0.00 | 0.00 | 88 | 1015.1 |
| 20260904092342 | 75 | 147 | 3.0 | 3.0 | 0.00 | 0.00 | 0.00 | 88 | 1015.1 |
| 20260904091838 | 75 | 166 | 3.0 | 3.0 | 0.00 | 0.00 | 0.00 | 88 | 1015.1 |
| 20260904091333 | 75 | 155 | 2.0 | 3.0 | 0.00 | 0.00 | 0.00 | 88 | 1015.2 |
| 20260904090827 | 75 | 135 | 2.0 | 2.0 | 0.00 | 0.00 | 0.00 | 88 | 1015.2 |
| 20260904090324 | 75 | 173 | 2.0 | 2.0 | 0.00 | 0.00 | 0.00 | 88 | 1015.2 |
| 20260904085818 | 75 | 173 | 2.0 | 2.0 | 0.00 | 0.00 | 0.00 | 87 | 1015.2 |
| 20260904085314 | 75 | 174 | 2.0 | 2.0 | 0.00 | 0.00 | 0.00 | 87 | 1014.9 |
| 20260904084808 | 75 | 174 | 1.0 | 1.0 | 0.00 | 0.00 | 0.00 | 87 | 1015.2 |
| 20260904084304 | 75 | 174 | 1.0 | 1.0 | 0.00 | 0.00 | 0.00 | 87 | 1015.1 |
| 20260904083800 | 75 | 174 | 1.0 | 1.0 | 0.00 | 0.00 | 0.00 | 86 | 1015.0 |
| 20260904083256 | 75 | 174 | 1.0 | 1.0 | 0.00 | 0.00 | 0.00 | 86 | 1015.1 |
| 20260904082751 | 75 | 174 | 2.0 | 2.0 | 0.00 | 0.00 | 0.00 | 86 | 1015.1 |
| 20260904082245 | 75 | 174 | 1.0 | 1.0 | 0.00 | 0.00 | 0.00 | 86 | 1014.9 |
| 20260904081740 | 75 | 174 | 1.0 | 1.0 | 0.00 | 0.00 | 0.00 | 86 | 1015.1 |
| 20260904081231 | 75 | 174 | 2.0 | 2.0 | 0.00 | 0.00 | 0.00 | 86 | 1014.9 |
| 20260904080726 | 75 | 174 | 1.0 | 2.0 | 0.00 | 0.00 | 0.00 | 86 | 1015.1 |
| 20260904080222 | 74 | 175 | 1.0 | 2.0 | 0.00 | 0.00 | 0.00 | 87 | 1015.0 |
| 20260904075718 | 74 | 175 | 0.0 | 0.0 | 0.00 | 0.00 | 0.00 | 87 | 1015.0 |
| 20260904075213 | 74 | 175 | 0.0 | 0.0 | 0.00 | 0.00 | 0.00 | 86 | 1015.1 |
| 20260904074712 | 74 | 174 | 0.0 | 0.0 | 0.00 | 0.00 | 0.00 | 86 | 1015.1 |
| 20260904074206 | 74 | 174 | 0.0 | 0.0 | 0.00 | 0.00 | 0.00 | 86 | 1015.1 |
| 20260904073702 | 75 | 174 | 0.0 | 1.0 | 0.00 | 0.00 | 0.00 | 86 | 1015.1 |
| 20260904073158 | 75 | 174 | 0.0 | 1.0 | 0.00 | 0.00 | 0.00 | 86 | 1014.9 |
| 20260904072653 | 75 | 174 | 1.0 | 1.0 | 0.00 | 0.00 | 0.00 | 85 | 1015.1 |
| 20260904072148 | 75 | 175 | 0.0 | 0.0 | 0.00 | 0.00 | 0.00 | 85 | 1015.1 |
| 20260904071644 | 75 | 175 | 0.0 | 0.0 | 0.00 | 0.00 | 0.00 | 84 | 1015.1 |
| 20260904071139 | 75 | 175 | 0.0 | 0.0 | 0.00 | 0.00 | 0.00 | 84 | 1014.9 |
| 20260904070638 | 75 | 175 | 0.0 | 1.0 | 0.00 | 0.00 | 0.00 | 84 | 1014.9 |
| 20260904070132 | 75 | 175 | 1.0 | 1.0 | 0.00 | 0.00 | 0.00 | 84 | 1014.9 |
| 20260904065632 | 75 | 176 | 2.0 | 2.0 | 0.00 | 0.00 | 0.00 | 85 | 1014.9 |
| 20260904065130 | 75 | 176 | 1.0 | 1.0 | 0.00 | 0.00 | 0.00 | 84 | 1015.3 |
| 20260904064625 | 75 | 176 | 0.0 | 0.0 | 0.00 | 0.00 | 0.00 | 84 | 1015.4 |
| 20260904064125 | 76 | 175 | 0.0 | 0.0 | 0.00 | 0.00 | 0.00 | 84 | 1015.4 |
| 20260904063621 | 75 | 175 | 0.0 | 1.0 | 0.00 | 0.00 | 0.00 | 84 | 1015.4 |
| 20260904063116 | 75 | 175 | 1.0 | 1.0 | 0.00 | 0.00 | 0.00 | 83 | 1015.4 |
| 20260904062612 | 75 | 176 | 1.0 | 2.0 | 0.00 | 0.00 | 0.00 | 83 | 1015.4 |
| 20260904062107 | 75 | 176 | 1.0 | 1.0 | 0.00 | 0.00 | 0.00 | 84 | 1015.3 |
| 20260904061603 | 76 | 176 | 0.0 | 0.0 | 0.00 | 0.00 | 0.00 | 83 | 1015.1 |
| 20260904061059 | 76 | 176 | 0.0 | 0.0 | 0.00 | 0.00 | 0.00 | 83 | 1015.2 |
| 20260904060555 | 76 | 175 | 2.0 | 2.0 | 0.00 | 0.00 | 0.00 | 83 | 1015.2 |
| 20260904060051 | 76 | 176 | 1.0 | 1.0 | 0.00 | 0.00 | 0.00 | 83 | 1015.1 |
| 20260904055546 | 76 | 176 | 0.0 | 0.0 | 0.00 | 0.00 | 0.00 | 83 | 1014.9 |
| 20260904055041 | 76 | 176 | 0.0 | 0.0 | 0.00 | 0.00 | 0.00 | 82 | 1015.1 |
| 20260904054537 | 77 | 176 | 0.0 | 0.0 | 0.00 | 0.00 | 0.00 | 81 | 1015.2 |
| 20260904054033 | 77 | 176 | 0.0 | 1.0 | 0.00 | 0.00 | 0.00 | 81 | 1015.5 |
| 20260904053532 | 77 | 176 | 1.0 | 1.0 | 0.00 | 0.00 | 0.00 | 81 | 1014.9 |
| 20260904053028 | 77 | 176 | 0.0 | 0.0 | 0.00 | 0.00 | 0.00 | 81 | 1015.1 |
| 20260904052524 | 77 | 176 | 1.0 | 1.0 | 0.00 | 0.00 | 0.00 | 81 | 1014.9 |
| 20260904052020 | 77 | 176 | 1.0 | 1.0 | 0.00 | 0.00 | 0.00 | 81 | 1015.0 |
| 20260904051516 | 77 | 177 | 1.0 | 1.0 | 0.00 | 0.00 | 0.00 | 80 | 1015.0 |
| 20260904051015 | 78 | 185 | 3.0 | 3.0 | 0.00 | 0.00 | 0.00 | 80 | 1015.0 |